Location: La Pernelle
(49.6188°N, 1.2999°W)
Time: 03:19:55
(UTC+00:00)

NOSS 3-2 (A) - Pass Details

Date: 18 October 2021
Orbit: 771 x 1437 km, 63.4° (Epoch: 21 November)

Event Time Altitude Azimuth Distance (km) Brightness Sun altitude
Rises 20:45:06 0° 312° (NW) 3,771 7.6 -34.9°
Reaches altitude 10° 20:47:45 10° 320° (NW) 2,914 6.7 -35.3°
Enters shadow 20:53:27 39° 13° (NNE) 1,702 4.7 -36.1°
